| time (UTC) | temp C | wind direction | speed KPH | gust KPH | rain 1hr cm | rain 24hr cm | rain mn cm | humidity % | barometer mb |
| 20260505040043 | 14 | 0 | 0.0 | 4.8 | 0.00 | 0.00 | 0.00 | 75 | 1016.4 |
| 20260505035522 | 14 | 0 | 0.0 | 4.8 | 0.00 | 0.00 | 0.00 | 73 | 1016.3 |
| 20260505035026 | 15 | 0 | 1.6 | 4.8 | 0.00 | 0.00 | 0.00 | 73 | 1016.3 |
| 20260505034538 | 15 | 107 | 0.0 | 4.8 | 0.00 | 0.00 | 0.00 | 73 | 1016.4 |
| 20260505034023 | 15 | 107 | 1.6 | 4.8 | 0.00 | 0.00 | 0.00 | 74 | 1016.4 |
| 20260505033526 | 15 | 0 | 0.0 | 4.8 | 0.00 | 0.00 | 0.00 | 73 | 1016.5 |
| 20260505033038 | 15 | 113 | 0.0 | 4.8 | 0.00 | 0.00 | 0.00 | 72 | 1016.4 |
| 20260505032523 | 15 | 104 | 0.0 | 4.8 | 0.00 | 0.00 | 0.00 | 72 | 1016.4 |
| 20260505032022 | 15 | 0 | 0.0 | 3.2 | 0.00 | 0.00 | 0.00 | 73 | 1016.4 |
| 20260505031540 | 15 | 0 | 0.0 | 4.8 | 0.00 | 0.00 | 0.00 | 71 | 1016.3 |
| 20260505031022 | 15 | 0 | 0.0 | 4.8 | 0.00 | 0.00 | 0.00 | 70 | 1016.5 |
| 20260505030522 | 16 | 0 | 1.6 | 4.8 | 0.00 | 0.00 | 0.00 | 69 | 1016.5 |
| 20260505030038 | 16 | 0 | 0.0 | 3.2 | 0.00 | 0.00 | 0.00 | 68 | 1016.4 |
| 20260505025523 | 16 | 0 | 0.0 | 4.8 | 0.00 | 0.00 | 0.00 | 68 | 1016.4 |
| 20260505025023 | 16 | 0 | 1.6 | 4.8 | 0.00 | 0.00 | 0.00 | 69 | 1016.3 |
| 20260505024547 | 16 | 111 | 0.0 | 4.8 | 0.00 | 0.00 | 0.00 | 69 | 1016.4 |
| 20260505024023 | 16 | 0 | 0.0 | 4.8 | 0.00 | 0.00 | 0.00 | 67 | 1016.4 |
| 20260505023523 | 16 | 111 | 1.6 | 4.8 | 0.00 | 0.00 | 0.00 | 68 | 1016.3 |
| 20260505023042 | 16 | 107 | 1.6 | 4.8 | 0.00 | 0.00 | 0.00 | 67 | 1016.3 |
| 20260505022523 | 16 | 0 | 0.0 | 0.0 | 0.00 | 0.00 | 0.00 | 67 | 1016.3 |
| 20260505022024 | 17 | 0 | 0.0 | 0.0 | 0.00 | 0.00 | 0.00 | 66 | 1016.2 |
| 20260505021539 | 17 | 0 | 0.0 | 0.0 | 0.00 | 0.00 | 0.00 | 65 | 1016.3 |
| 20260505021023 | 17 | 0 | 0.0 | 1.6 | 0.00 | 0.00 | 0.00 | 63 | 1016.2 |
| 20260505020524 | 17 | 0 | 0.0 | 1.6 | 0.00 | 0.00 | 0.00 | 62 | 1016.1 |
| 20260505020038 | 17 | 0 | 0.0 | 1.6 | 0.00 | 0.00 | 0.00 | 62 | 1016.1 |
| 20260505015524 | 18 | 0 | 0.0 | 0.0 | 0.00 | 0.00 | 0.00 | 62 | 1016.0 |
| 20260505015024 | 18 | 0 | 0.0 | 3.2 | 0.00 | 0.00 | 0.00 | 61 | 1016.0 |
| 20260505014538 | 18 | 0 | 0.0 | 4.8 | 0.00 | 0.00 | 0.00 | 59 | 1016.0 |
| 20260505014026 | 18 | 0 | 0.0 | 4.8 | 0.00 | 0.00 | 0.00 | 58 | 1016.0 |
| 20260505013523 | 18 | 0 | 0.0 | 4.8 | 0.00 | 0.00 | 0.00 | 60 | 1016.0 |
| 20260505013039 | 18 | 106 | 0.0 | 3.2 | 0.00 | 0.00 | 0.00 | 57 | 1015.9 |
| 20260505012523 | 18 | 0 | 0.0 | 3.2 | 0.00 | 0.00 | 0.00 | 55 | 1015.8 |
| 20260505012023 | 19 | 0 | 0.0 | 3.2 | 0.00 | 0.00 | 0.00 | 59 | 1015.7 |
| 20260505011541 | 19 | 0 | 0.0 | 3.2 | 0.00 | 0.00 | 0.00 | 54 | 1015.7 |
| 20260505011023 | 19 | 107 | 0.0 | 3.2 | 0.00 | 0.00 | 0.00 | 54 | 1015.7 |
| 20260505010523 | 20 | 0 | 0.0 | 3.2 | 0.00 | 0.00 | 0.00 | 52 | 1015.6 |
| 20260505010048 | 20 | 0 | 0.0 | 0.0 | 0.00 | 0.00 | 0.00 | 52 | 1015.6 |
| 20260505005523 | 20 | 0 | 0.0 | 0.0 | 0.00 | 0.00 | 0.00 | 50 | 1015.6 |
| 20260505005023 | 21 | 0 | 0.0 | 1.6 | 0.00 | 0.00 | 0.00 | 49 | 1015.4 |
| 20260505004538 | 21 | 0 | 0.0 | 3.2 | 0.00 | 0.00 | 0.00 | 48 | 1015.5 |
| 20260505004023 | 21 | 0 | 0.0 | 3.2 | 0.00 | 0.00 | 0.00 | 48 | 1015.5 |
| 20260505003524 | 22 | 0 | 0.0 | 3.2 | 0.00 | 0.00 | 0.00 | 50 | 1015.5 |
| 20260505003038 | 22 | 0 | 0.0 | 3.2 | 0.00 | 0.00 | 0.00 | 49 | 1015.5 |
| 20260505002522 | 22 | 0 | 0.0 | 1.6 | 0.00 | 0.00 | 0.00 | 47 | 1015.4 |
| 20260505002022 | 23 | 0 | 0.0 | 1.6 | 0.00 | 0.00 | 0.00 | 45 | 1015.4 |
| 20260505001540 | 23 | 0 | 0.0 | 3.2 | 0.00 | 0.00 | 0.00 | 44 | 1015.2 |
| 20260505001022 | 23 | 0 | 0.0 | 3.2 | 0.00 | 0.00 | 0.00 | 43 | 1015.2 |
| 20260505000522 | 23 | 102 | 0.0 | 3.2 | 0.00 | 0.00 | 0.00 | 39 | 1015.2 |
| 20260505000044 | 23 | 104 | 0.0 | 3.2 | 0.00 | 0.00 | 0.00 | 39 | 1015.2 |
| 20260504235523 | 23 | 0 | 0.0 | 1.6 | 0.00 | 0.00 | 0.00 | 40 | 1015.3 |
| 20260504235024 | 23 | 0 | 0.0 | 6.4 | 0.00 | 0.00 | 0.00 | 40 | 1015.3 |
| 20260504234541 | 23 | 0 | 1.6 | 6.4 | 0.00 | 0.00 | 0.00 | 39 | 1015.4 |
| 20260504234026 | 24 | 209 | 0.0 | 8.0 | 0.00 | 0.00 | 0.00 | 40 | 1015.4 |
| 20260504233525 | 24 | 171 | 1.6 | 8.0 | 0.00 | 0.00 | 0.00 | 39 | 1015.5 |
| 20260504233052 | 24 | 173 | 3.2 | 8.0 | 0.00 | 0.00 | 0.00 | 37 | 1015.4 |
| 20260504232525 | 25 | 170 | 3.2 | 8.0 | 0.00 | 0.00 | 0.00 | 38 | 1015.4 |
| 20260504232024 | 24 | 142 | 3.2 | 8.0 | 0.00 | 0.00 | 0.00 | 37 | 1015.4 |
| 20260504231544 | 25 | 205 | 1.6 | 9.7 | 0.00 | 0.00 | 0.00 | 38 | 1015.4 |
| 20260504231028 | 25 | 200 | 4.8 | 9.7 | 0.00 | 0.00 | 0.00 | 36 | 1015.4 |
| 20260504230526 | 25 | 140 | 1.6 | 8.0 | 0.00 | 0.00 | 0.00 | 37 | 1015.3 |
| 20260504230050 | 25 | 223 | 3.2 | 9.7 | 0.00 | 0.00 | 0.00 | 36 | 1015.3 |
| 20260504225526 | 25 | 217 | 1.6 | 9.7 | 0.00 | 0.00 | 0.00 | 35 | 1015.3 |
| 20260504225027 | 25 | 157 | 3.2 | 8.0 | 0.00 | 0.00 | 0.00 | 36 | 1015.2 |
| 20260504224545 | 25 | 211 | 0.0 | 6.4 | 0.00 | 0.00 | 0.00 | 40 | 1015.2 |
| 20260504224025 | 25 | 0 | 1.6 | 8.0 | 0.00 | 0.00 | 0.00 | 38 | 1015.1 |
| 20260504223529 | 25 | 0 | 3.2 | 8.0 | 0.00 | 0.00 | 0.00 | 35 | 1015.2 |
| 20260504223038 | 26 | 191 | 3.2 | 6.4 | 0.00 | 0.00 | 0.00 | 36 | 1015.2 |
| 20260504222526 | 25 | 0 | 1.6 | 11.3 | 0.00 | 0.00 | 0.00 | 35 | 1015.3 |
| 20260504222025 | 25 | 188 | 3.2 | 11.3 | 0.00 | 0.00 | 0.00 | 32 | 1015.4 |
| 20260504221540 | 25 | 173 | 4.8 | 11.3 | 0.00 | 0.00 | 0.00 | 32 | 1015.4 |
| 20260504221026 | 26 | 203 | 3.2 | 11.3 | 0.00 | 0.00 | 0.00 | 33 | 1015.3 |
| 20260504220525 | 26 | 163 | 3.2 | 11.3 | 0.00 | 0.00 | 0.00 | 30 | 1015.3 |
| 20260504220041 | 26 | 192 | 3.2 | 11.3 | 0.00 | 0.00 | 0.00 | 34 | 1015.4 |
| 20260504215529 | 26 | 234 | 4.8 | 12.9 | 0.00 | 0.00 | 0.00 | 35 | 1015.3 |
| 20260504215025 | 26 | 240 | 4.8 | 12.9 | 0.00 | 0.00 | 0.00 | 31 | 1015.3 |
| 20260504214537 | 26 | 0 | 1.6 | 11.3 | 0.00 | 0.00 | 0.00 | 34 | 1015.3 |
| 20260504214030 | 26 | 171 | 3.2 | 16.1 | 0.00 | 0.00 | 0.00 | 32 | 1015.4 |
| 20260504213526 | 26 | 184 | 4.8 | 16.1 | 0.00 | 0.00 | 0.00 | 36 | 1015.4 |
| 20260504213038 | 26 | 167 | 3.2 | 12.9 | 0.00 | 0.00 | 0.00 | 36 | 1015.3 |
| 20260504212526 | 26 | 176 | 4.8 | 14.5 | 0.00 | 0.00 | 0.00 | 34 | 1015.3 |
| 20260504212026 | 26 | 158 | 4.8 | 14.5 | 0.00 | 0.00 | 0.00 | 34 | 1015.3 |
| 20260504211539 | 26 | 311 | 1.6 | 11.3 | 0.00 | 0.00 | 0.00 | 38 | 1015.3 |
| 20260504211029 | 26 | 140 | 1.6 | 12.9 | 0.00 | 0.00 | 0.00 | 36 | 1015.3 |
| 20260504210525 | 26 | 258 | 3.2 | 12.9 | 0.00 | 0.00 | 0.00 | 33 | 1015.3 |
| 20260504210040 | 26 | 146 | 4.8 | 12.9 | 0.00 | 0.00 | 0.00 | 35 | 1015.5 |
| 20260504205527 | 26 | 162 | 3.2 | 11.3 | 0.00 | 0.00 | 0.00 | 33 | 1015.4 |
| 20260504205025 | 26 | 209 | 3.2 | 14.5 | 0.00 | 0.00 | 0.00 | 37 | 1015.3 |
| 20260504204547 | 26 | 199 | 4.8 | 14.5 | 0.00 | 0.00 | 0.00 | 35 | 1015.4 |
| 20260504204027 | 26 | 165 | 3.2 | 12.9 | 0.00 | 0.00 | 0.00 | 40 | 1015.4 |
| 20260504203522 | 26 | 258 | 1.6 | 17.7 | 0.00 | 0.00 | 0.00 | 35 | 1015.4 |
| 20260504203053 | 26 | 217 | 4.8 | 17.7 | 0.00 | 0.00 | 0.00 | 34 | 1015.4 |
| 20260504202522 | 27 | 317 | 3.2 | 11.3 | 0.00 | 0.00 | 0.00 | 34 | 1015.5 |
| 20260504202022 | 27 | 0 | 1.6 | 11.3 | 0.00 | 0.00 | 0.00 | 37 | 1015.6 |
| 20260504201540 | 27 | 203 | 3.2 | 11.3 | 0.00 | 0.00 | 0.00 | 36 | 1015.6 |
| 20260504201026 | 27 | 211 | 1.6 | 11.3 | 0.00 | 0.00 | 0.00 | 36 | 1015.6 |
| 20260504200521 | 27 | 299 | 1.6 | 11.3 | 0.00 | 0.00 | 0.00 | 37 | 1015.7 |
| 20260504200038 | 27 | 0 | 1.6 | 8.0 | 0.00 | 0.00 | 0.00 | 36 | 1015.7 |
| 20260504195521 | 26 | 244 | 3.2 | 8.0 | 0.00 | 0.00 | 0.00 | 38 | 1015.7 |
| 20260504195022 | 27 | 165 | 3.2 | 8.0 | 0.00 | 0.00 | 0.00 | 33 | 1015.9 |
| 20260504194538 | 26 | 0 | 3.2 | 8.0 | 0.00 | 0.00 | 0.00 | 35 | 1016.1 |
| 20260504194021 | 26 | 329 | 3.2 | 8.0 | 0.00 | 0.00 | 0.00 | 35 | 1016.1 |
| 20260504193522 | 26 | 0 | 1.6 | 6.4 | 0.00 | 0.00 | 0.00 | 34 | 1016.1 |
| 20260504193038 | 26 | 295 | 1.6 | 4.8 | 0.00 | 0.00 | 0.00 | 37 | 1016.2 |
| 20260504192522 | 26 | 355 | 1.6 | 9.7 | 0.00 | 0.00 | 0.00 | 33 | 1016.3 |
| 20260504192023 | 25 | 177 | 1.6 | 9.7 | 0.00 | 0.00 | 0.00 | 36 | 1016.4 |
| 20260504191542 | 25 | 196 | 3.2 | 9.7 | 0.00 | 0.00 | 0.00 | 33 | 1016.5 |
| 20260504191022 | 26 | 280 | 4.8 | 12.9 | 0.00 | 0.00 | 0.00 | 36 | 1016.5 |
| 20260504190522 | 25 | 0 | 3.2 | 14.5 | 0.00 | 0.00 | 0.00 | 38 | 1016.6 |
| 20260504190101 | 26 | 173 | 4.8 | 14.5 | 0.00 | 0.00 | 0.00 | 37 | 1016.7 |
| 20260504185521 | 26 | 0 | 3.2 | 9.7 | 0.00 | 0.00 | 0.00 | 35 | 1016.8 |
| 20260504185021 | 25 | 209 | 1.6 | 9.7 | 0.00 | 0.00 | 0.00 | 39 | 1017.0 |
| 20260504184540 | 25 | 180 | 1.6 | 9.7 | 0.00 | 0.00 | 0.00 | 38 | 1017.0 |
| 20260504184022 | 25 | 0 | 1.6 | 11.3 | 0.00 | 0.00 | 0.00 | 41 | 1017.1 |
| 20260504183522 | 25 | 212 | 4.8 | 14.5 | 0.00 | 0.00 | 0.00 | 41 | 1017.2 |
| 20260504183039 | 25 | 181 | 3.2 | 14.5 | 0.00 | 0.00 | 0.00 | 41 | 1017.3 |
| 20260504182530 | 24 | 271 | 3.2 | 11.3 | 0.00 | 0.00 | 0.00 | 41 | 1017.3 |
| 20260504182026 | 24 | 292 | 0.0 | 8.0 | 0.00 | 0.00 | 0.00 | 40 | 1017.2 |
| 20260504181542 | 24 | 338 | 3.2 | 9.7 | 0.00 | 0.00 | 0.00 | 40 | 1017.2 |
| 20260504181021 | 24 | 203 | 4.8 | 14.5 | 0.00 | 0.00 | 0.00 | 41 | 1017.4 |
| 20260504180523 | 23 | 219 | 1.6 | 14.5 | 0.00 | 0.00 | 0.00 | 39 | 1017.4 |
| 20260504180039 | 24 | 165 | 3.2 | 12.9 | 0.00 | 0.00 | 0.00 | 39 | 1017.4 |
| 20260504175524 | 24 | 156 | 4.8 | 12.9 | 0.00 | 0.00 | 0.00 | 41 | 1017.4 |
| 20260504175023 | 24 | 300 | 1.6 | 8.0 | 0.00 | 0.00 | 0.00 | 41 | 1017.4 |
| 20260504174536 | 23 | 288 | 1.6 | 11.3 | 0.00 | 0.00 | 0.00 | 39 | 1017.5 |
| 20260504174022 | 23 | 296 | 4.8 | 11.3 | 0.00 | 0.00 | 0.00 | 38 | 1017.6 |
| 20260504173522 | 23 | 198 | 3.2 | 9.7 | 0.00 | 0.00 | 0.00 | 40 | 1017.7 |
| 20260504173039 | 23 | 208 | 4.8 | 9.7 | 0.00 | 0.00 | 0.00 | 43 | 1017.7 |
| 20260504172522 | 23 | 0 | 1.6 | 8.0 | 0.00 | 0.00 | 0.00 | 42 | 1017.8 |
| 20260504172025 | 23 | 263 | 1.6 | 12.9 | 0.00 | 0.00 | 0.00 | 42 | 1017.8 |
| 20260504171539 | 23 | 0 | 3.2 | 12.9 | 0.00 | 0.00 | 0.00 | 41 | 1017.7 |
| 20260504171024 | 23 | 232 | 1.6 | 8.0 | 0.00 | 0.00 | 0.00 | 43 | 1017.7 |
| 20260504170522 | 23 | 341 | 3.2 | 8.0 | 0.00 | 0.00 | 0.00 | 40 | 1017.7 |
| 20260504151021 | 20 | 0 | 1.6 | 9.7 | 0.00 | 0.00 | 0.00 | 49 | 1019.3 |
| 20260504150525 | 20 | 295 | 0.0 | 9.7 | 0.00 | 0.00 | 0.00 | 52 | 1019.3 |
| 20260504141022 | 16 | 336 | 1.6 | 6.4 | 0.00 | 0.00 | 0.00 | 67 | 1019.4 |
| 20260504140525 | 16 | 0 | 0.0 | 4.8 | 0.00 | 0.00 | 0.00 | 69 | 1019.4 |
| 20260504130522 | 11 | 0 | 0.0 | 1.6 | 0.00 | 0.00 | 0.00 | 87 | 1019.3 |
| 20260504110521 | 7 | 0 | 0.0 | 0.0 | 0.00 | 0.00 | 0.00 | 90 | 1018.6 |
| 20260504100524 | 7 | 0 | 0.0 | 0.0 | 0.00 | 0.00 | 0.00 | 89 | 1018.6 |
| 20260504081542 | 8 | 0 | 0.0 | 0.0 | 0.00 | 0.00 | 0.00 | 88 | 1018.5 |
| 20260504081021 | 8 | 0 | 0.0 | 0.0 | 0.00 | 0.00 | 0.00 | 88 | 1018.5 |
| 20260504080521 | 8 | 0 | 0.0 | 0.0 | 0.00 | 0.00 | 0.00 | 88 | 1018.5 |
| 20260504050523 | 10 | 0 | 0.0 | 0.0 | 0.00 | 0.00 | 0.00 | 82 | 1019.3 |
| 20260504045525 | 11 | 0 | 0.0 | 0.0 | 0.00 | 0.00 | 0.00 | 83 | 1019.3 |
| 20260504045023 | 11 | 0 | 0.0 | 0.0 | 0.00 | 0.00 | 0.00 | 82 | 1019.3 |
| 20260504044536 | 11 | 0 | 0.0 | 0.0 | 0.00 | 0.00 | 0.00 | 82 | 1019.3 |
| 20260504044028 | 11 | 0 | 0.0 | 0.0 | 0.00 | 0.00 | 0.00 | 82 | 1019.2 |
| 20260504043523 | 11 | 0 | 0.0 | 3.2 | 0.00 | 0.00 | 0.00 | 83 | 1019.2 |
| 20260504043036 | 11 | 0 | 0.0 | 3.2 | 0.00 | 0.00 | 0.00 | 82 | 1019.1 |
| 20260504042525 | 11 | 0 | 0.0 | 0.0 | 0.00 | 0.00 | 0.00 | 81 | 1019.0 |
| 20260504042022 | 11 | 0 | 0.0 | 0.0 | 0.00 | 0.00 | 0.00 | 80 | 1018.9 |
| 20260504041538 | 11 | 0 | 0.0 | 0.0 | 0.00 | 0.00 | 0.00 | 79 | 1018.9 |
| 20260504041022 | 12 | 0 | 0.0 | 0.0 | 0.00 | 0.00 | 0.00 | 78 | 1018.9 |
| 20260504040523 | 12 | 0 | 0.0 | 0.0 | 0.00 | 0.00 | 0.00 | 78 | 1018.9 |